Home   Weather   39°49'N, 104°59'W   Past weeks
Flag for USA

Past Weather in 39°49'N, 104°59'W, USA — Yesterday and Last 2 Weeks

Now
33 °F

Passing clouds.


Feels Like: 29 °F
Forecast: 40 / 29 °F
Wind: 3 mph from Northeast

Location: Buckley Air Force Base

Current Time: Mar 19, 2019 at 2:18:39 am

Latest Report: Mar 19, 2019 at 12:58 am


Visibility: 10 mi

Pressure: 30.17 "Hg

Humidity: 94%

Dew Point: 31 °F

Location of 39°49'N, 104°59'WLocation

Past Weather in 39°49'N, 104°59'W — Graph

°F

39°49'N, 104°59'W Temperature Yesterday

Maximum temperature yesterday: 48 °F (at 2:58 pm)
Minimum temperature yesterday: 28 °F (at 6:58 am)
Average temperature yesterday: 37 °F

High & Low Weather Summary for the Past Weeks

 TemperatureHumidityPressure
High62 °F (Mar 12, 3:58 pm)100% (Mar 6, 9:14 pm)30.50 "Hg (Mar 6, 9:14 pm)
Low-4 °F (Mar 4, 3:58 am)26% (Mar 9, 9:58 am)29.03 "Hg (Mar 13, 4:58 am)
Average32 °F71%30.03 "Hg
* Reported Mar 3 11:58 pm — Mar 19 12:58 am, 39°49'N, 104°59'W. Weather by CustomWeather, © 2019

Note: Actual official high and low records may vary slightly from our data, if they occured in-between our weather recording intervals... More about our weather records

Advertising

39°49'N, 104°59'W Weather History for the Previous 24 Hours

Scroll right to see more
 ConditionsComfort  
Time TempWeatherWind HumidityBarometerVisibility
12:58 am
Tue, Mar 19
33 °FPassing clouds.3 mph94%30.17 "Hg10 mi
11:58 pm
Mon, Mar 18
36 °FPartly cloudy.12 mph78%30.19 "Hg10 mi
10:58 pm38 °FPassing clouds.13 mph70%30.16 "Hg10 mi
9:58 pm38 °FPartly cloudy.5 mph71%30.17 "Hg10 mi
8:58 pm39 °FPartly cloudy.5 mph71%30.17 "Hg10 mi
7:58 pm38 °FPartly cloudy.6 mph73%30.17 "Hg10 mi
6:58 pm40 °FPartly sunny.9 mph66%30.15 "Hg10 mi
5:58 pm43 °FPartly sunny.13 mph62%30.11 "Hg10 mi
4:58 pm45 °FPartly sunny.10 mph59%30.08 "Hg10 mi
3:58 pm46 °FPartly sunny.10 mph59%30.07 "Hg10 mi
2:58 pm48 °FPartly sunny.8 mph56%30.07 "Hg10 mi
1:58 pm47 °FPartly sunny.6 mph53%30.10 "Hg10 mi
12:58 pm44 °FPartly sunny.3 mph58%30.17 "Hg10 mi
11:58 am38 °FPartly sunny.3 mph68%30.20 "Hg10 mi
10:58 am36 °FPartly sunny.6 mph70%30.24 "Hg10 mi
9:58 am34 °FPartly sunny.3 mph76%30.27 "Hg10 mi
8:58 am32 °FPartly sunny.No wind88%30.27 "Hg10 mi
7:58 am30 °FBroken clouds.No wind100%30.26 "Hg10 mi
6:58 am28 °FPassing clouds.5 mph95%30.25 "Hg10 mi
5:58 am32 °FPassing clouds.9 mph73%30.21 "Hg10 mi
4:58 am33 °FPassing clouds.14 mph72%30.21 "Hg10 mi
3:58 am33 °FPassing clouds.15 mph70%30.21 "Hg10 mi
2:58 am30 °FPassing clouds.8 mph85%30.27 "Hg10 mi
Weather by CustomWeather, © 2019

See weather overview